Location: Newark
(48.9886°N, 1.2358°E)
Time: 18:06:49
(UTC+00:00)

Transit 2A Rocket - All Passes

Search period start: 13 November 2019 00:00
Search period end: 23 November 2019 00:00
Orbit: 594 x 909 km, 66.7° (Epoch: 13 November)

Date Brightness Start Highest point End Pass type
(mag) Time Alt. Az. Time Alt. Az. Time Alt. Az.
13 Nov - 00:09:01 10° WSW 00:13:32 44° NW 00:17:47 10° NNE night (unlit)
13 Nov - 01:55:15 10° NW 01:57:11 12° NNW 01:59:04 10° N night (unlit)
13 Nov - 05:24:02 10° N 05:26:29 15° NNE 05:28:57 10° ENE visible
13 Nov - 07:05:36 10° NNW 07:09:53 62° NE 07:14:18 10° SE daylight
13 Nov - 08:49:00 10° WNW 08:52:00 18° WSW 08:55:05 10° SSW daylight
13 Nov - 21:45:44 10° SSE 21:48:49 17° ESE 21:51:47 10° ENE night (unlit)
13 Nov - 23:26:10 10° SW 23:30:55 72° NW 23:35:22 10° NNE night (unlit)
14 Nov - 01:11:17 10° WNW 01:14:12 17° NNW 01:17:03 10° N night (unlit)
14 Nov - 04:42:09 10° N 04:43:28 11° NNE 04:44:47 10° NE visible
14 Nov - 06:23:12 10° NNW 06:27:15 38° NE 06:31:24 10° ESE visible
14 Nov - 08:05:51 10° NW 08:09:42 31° WSW 08:13:41 10° S daylight
14 Nov - 22:43:39 10° SSW 22:48:24 69° ESE 22:52:50 10° NE night (unlit)
15 Nov - 00:27:39 10° W 00:31:20 23° NW 00:34:52 10° NNE night (unlit)
15 Nov - 05:40:53 10° NNW 05:44:31 25° NE 05:48:11 10° E visible
15 Nov - 07:23:04 10° NW 07:27:18 55° WSW 07:31:42 10° SSE daylight
15 Nov - 22:01:30 10° S 22:05:57 40° ESE 22:10:09 10° NE night (unlit)
15 Nov - 23:44:20 10° WSW 23:48:33 33° NW 23:52:34 10° NNE night (unlit)
16 Nov - 01:31:35 10° NNW 01:32:26 10° NNW 01:33:18 10° N night (unlit)
16 Nov - 04:58:40 10° N 05:01:40 18° NNE 05:04:41 10° ENE visible
16 Nov - 06:40:29 10° NW 06:44:49 86° NE 06:49:20 10° SE daylight
16 Nov - 08:24:47 10° W 08:26:44 13° WSW 08:28:43 10° SW daylight
16 Nov - 21:19:47 10° SSE 21:23:36 24° ESE 21:27:13 10° ENE night (unlit)
16 Nov - 23:01:18 10° SW 23:05:53 52° NW 23:10:13 10° NNE night (unlit)
17 Nov - 00:47:09 10° WNW 00:49:24 14° NNW 00:51:39 10° N night (unlit)
17 Nov - 04:16:35 10° N 04:18:43 13° NNE 04:20:52 10° ENE visible
17 Nov - 05:58:01 10° NNW 06:02:15 52° NE 06:06:37 10° SE visible
17 Nov - 07:41:06 10° WNW 07:44:29 22° WSW 07:47:59 10° SSW daylight
17 Nov - 20:38:52 10° SE 20:41:20 14° ESE 20:43:42 10° ENE night (unlit)
17 Nov - 22:18:34 10° SW 22:23:19 85° NW 22:27:45 10° NE night (unlit)
18 Nov - 00:03:18 10° WNW 00:06:28 18° NNW 00:09:33 10° N night (unlit)
18 Nov - 03:35:03 10° N 03:35:40 10° NNE 03:36:18 10° NNE visible
18 Nov - 05:15:39 10° NNW 05:19:34 33° NE 05:23:36 10° ESE visible
18 Nov - 06:58:07 10° NW 07:02:09 38° WSW 07:06:20 10° S daylight
18 Nov - 21:36:10 10° SSW 21:40:48 57° ESE 21:45:11 10° NE night (unlit)
18 Nov - 23:19:47 10° W 23:23:38 26° NW 23:27:19 10° NNE night (unlit)
19 Nov - 04:33:21 10° NNW 04:36:48 22° NE 04:40:18 10° E visible
19 Nov - 06:15:24 10° NW 06:19:43 67° WSW 06:24:13 10° SSE visible
19 Nov - 20:54:09 10° S 20:58:24 33° ESE 21:02:25 10° NE night (unlit)
19 Nov - 22:36:33 10° WSW 22:40:53 38° NW 22:45:01 10° NNE night (unlit)
20 Nov - 00:23:13 10° NW 00:24:39 11° NNW 00:26:04 10° N night (unlit)
20 Nov - 03:51:11 10° N 03:53:55 16° NNE 03:56:41 10° ENE visible
20 Nov - 05:32:52 10° NNW 05:37:12 73° NE 05:41:43 10° SE visible
20 Nov - 07:16:36 10° WNW 07:19:14 16° WSW 07:21:56 10° SW daylight
20 Nov - 20:12:40 10° SSE 20:16:04 20° ESE 20:19:20 10° ENE night (unlit)
20 Nov - 21:53:37 10° SW 21:58:15 61° NW 22:02:37 10° NNE night (unlit)
20 Nov - 23:39:04 10° WNW 23:41:39 15° NNW 23:44:10 10° N night (unlit)
21 Nov - 03:09:11 10° N 03:10:56 12° NNE 03:12:42 10° NE visible
21 Nov - 04:50:26 10° NNW 04:54:36 44° NE 04:58:54 10° ESE visible
21 Nov - 06:33:16 10° WNW 06:36:57 27° WSW 06:40:46 10° S visible
21 Nov - 19:32:22 10° SE 19:33:50 11° ESE 19:35:17 10° E night (unlit)
21 Nov - 21:11:00 10° SSW 21:15:42 81° SE 21:20:07 10° NE night (unlit)
21 Nov - 22:55:21 10° W 22:58:44 20° NW 23:02:02 10° NNE night (unlit)
22 Nov - 04:08:06 10° NNW 04:11:53 29° NE 04:15:46 10° ESE visible
22 Nov - 05:50:24 10° NW 05:54:35 46° WSW 05:58:56 10° SSE visible
22 Nov - 20:28:43 10° SSW 20:33:14 47° ESE 20:37:29 10° NE night (unlit)
22 Nov - 22:11:56 10° WSW 22:15:56 29° NW 22:19:47 10° NNE night (unlit)
